[[{"header":{"parameterUnit":"m.s-1","parameterCategory":1,"la1":30.2991,"la2":30.254,"lo1":-89.0895,"lo2":-89.0444,"dy":0.0017,"dx":0.0017,"nx":28,"ny":28,"refTime":"2024-04-18T21:00:00:Z","depth":0,"parameterNumber":2,"parameterNumberName":"U-component_of_WINDS"},"data":[0,0,0,0,0,0,0,0,0,0,0,0,0,0,0,0,0,0,0,0,0,0,0,0,0,0,0,0,0,0,0,0,0,0,0,0,0,0,0,0,0,0,0,0,0,0,0,0,0,0,0,0,0,0,0,0,0,0,0.3544,0.3545,0,0.3648,0.3649,0.365,0.3682,0.3682,0.3681,0.3681,0.3789,0.3792,0.3795,0,0,0,0,0,0,0,0,0,0,0,0,0,0.3373,0.3376,0.3544,0.3545,0.3547,0.3648,0.3649,0.365,0.3682,0.3682,0.3681,0.3681,0.3787,0.3791,0.3795,0,0,0,0,0,0,0,0,0,0,0,0,0,0.3459,0.3377,0.3544,0.3575,0.3578,0.3647,0.3649,0.3651,0.3683,0.3682,0.3681,0.368,0.3786,0.3791,0.3796,0.3842,0,0,0.3811,0.3813,0,0,0,0,0,0,0,0,0.3454,0.3466,0.3569,0.3573,0.3577,0.3651,0.3628,0.3715,0.3683,0.3643,0.3681,0.368,0.3744,0.3752,0.3773,0.3847,0.3852,0.3812,0.3815,0.3817,0.3818,0,0,0,0,0,0,0,0.3448,0.3461,0.3585,0.357,0.3575,0.3583,0.3595,0.3645,0.3696,0.3646,0.3649,0.3661,0.3746,0.3768,0.3776,0.3853,0.3812,0.3816,0.3819,0.3821,0.3968,0.3969,0,0,0,0,0,0,0.3437,0.3456,0.3582,0.3588,0.3513,0.3587,0.36,0.3628,0.3696,0.3705,0.3661,0.3662,0.376,0.377,0.378,0.3837,0.3817,0.3822,0.3824,0.3968,0.3969,0.397,0,0,0,0,0,0,0.3433,0.3448,0.3578,0.3523,0.354,0.3591,0.3622,0.3631,0.3653,0.3707,0.3717,0.3675,0.376,0.3773,0.3826,0.3842,0.3824,0.3828,0.3967,0.3968,0.3969,0.3953,0,0,0,0,0,0,0.3428,0.3446,0.3465,0.3523,0.3543,0.3622,0.3624,0.3633,0.3662,0.3663,0.3722,0.3732,0.376,0.3818,0.3831,0.3848,0.3832,0.3965,0.3967,0.3969,0.3952,0.3954,0.3955,0,0,0,0,0,0.3422,0.3457,0.3465,0.348,0.3566,0.3623,0.3634,0.3666,0.3663,0.3681,0.3716,0.373,0.3838,0.3823,0.3838,0.3857,0.3965,0.3967,0.3969,0.3952,0.3953,0.3955,0,0,0,0,0,0,0.34,0.3465,0.3475,0.353,0.357,0.3628,0.3653,0.3667,0.371,0.371,0.3748,0.3761,0.3811,0.3839,0.3822,0.3904,0.3902,0.3907,0.3884,0.3886,0.3887,0.3879,0.3836,0,0,0,0,0,0.3401,0.3441,0.3496,0.3539,0.3558,0.3602,0.3627,0.3648,0.3692,0.371,0.3748,0.379,0.3833,0.3861,0.3904,0.3956,0.3969,0.3977,0.3978,0.3978,0.3982,0.4011,0.4014,0.3976,0.3976,0.3976,0,0,0.3404,0.3445,0.3468,0.3535,0.3569,0.3609,0.3616,0.3659,0.3689,0.3716,0.3768,0.3798,0.3847,0.3899,0.3925,0.3925,0.3995,0.3981,0.3981,0.3985,0.4013,0.4017,0.402,0.3978,0.3978,0.3977,0,0,0.3431,0.3466,0.3505,0.3538,0.3589,0.3617,0.3626,0.3681,0.3701,0.3754,0.3775,0.3811,0.3886,0.3919,0.3946,0.3983,0.3998,0.3996,0.4003,0.403,0.4033,0.4036,0.4048,0.4052,0.4,0.4,0.4,0,0.3429,0.3491,0.3523,0.3564,0.3593,0.3618,0.3657,0.3688,0.375,0.3769,0.3768,0.3861,0.3896,0.3956,0.3965,0.3986,0.3997,0.399,0.403,0.4033,0.4036,0.4048,0.4053,0.4,0.4,0.4,0.4,0,0.3485,0.3527,0.3552,0.361,0.3642,0.3682,0.372,0.3748,0.3765,0.3794,0.3846,0.3889,0.394,0.3956,0.3974,0.4018,0.4017,0.4022,0.402,0.4039,0.4051,0.4056,0.3999,0.3999,0.3999,0.3999,0,0,0.3502,0.3576,0.3585,0.3611,0.3668,0.3701,0.3741,0.3791,0.3813,0.3855,0.389,0.3951,0.3956,0.3986,0.4008,0.4032,0.4057,0.4035,0.4037,0.4037,0.4107,0.4102,0.4107,0.4067,0.4068,0.4069,0.4103,0,0.3535,0.3608,0.3638,0.3697,0.3736,0.376,0.3795,0.3833,0.386,0.3897,0.3927,0.3969,0.3973,0.3991,0.4016,0.4049,0.4072,0.4047,0.4099,0.4101,0.4086,0.4114,0.411,0.414,0.4108,0.4109,0.4109,0,0.3584,0.3625,0.3688,0.3738,0.3756,0.3787,0.3834,0.3869,0.3912,0.393,0.3963,0.3983,0.4026,0.4021,0.408,0.4063,0.4086,0.4105,0.4107,0.4113,0.4106,0.412,0.415,0.4155,0.4117,0.4117,0.4116,0,0.3589,0.366,0.3706,0.3728,0.3788,0.3809,0.3836,0.3878,0.3906,0.3946,0.3964,0.401,0.4035,0.4069,0.4101,0.4095,0.4157,0.4155,0.4173,0.4172,0.4185,0.4184,0.4219,0.42,0.42,0.42,0.42,0,0.3623,0.3661,0.3709,0.3737,0.378,0.3813,0.3854,0.3881,0.3919,0.3953,0.3976,0.4008,0.4048,0.4085,0.411,0.4154,0.4166,0.4181,0.4187,0.4179,0.4177,0.4195,0.4193,0.4201,0.4201,0.4201,0.4201,0,0.3636,0.367,0.3722,0.3774,0.3788,0.3817,0.3862,0.389,0.3917,0.396,0.3972,0.4015,0.4059,0.4094,0.4152,0.4168,0.4215,0.4222,0.42,0.4203,0.4219,0.4217,0.4266,0.4274,0.425,0.425,0.4251,0,0.3656,0.3685,0.374,0.3764,0.3789,0.3828,0.3855,0.3889,0.3916,0.3967,0.3989,0.4034,0.4073,0.4141,0.4178,0.4222,0.423,0.4244,0.4237,0.4227,0.423,0.4227,0.423,0.4245,0.4245,0.4245,0.4245,0,0.3686,0.3701,0.374,0.3784,0.3815,0.3852,0.3889,0.3907,0.3947,0.3977,0.4021,0.405,0.4108,0.4153,0.42,0.4227,0.4243,0.4247,0.4254,0.4245,0.4231,0.4238,0.4202,0.4246,0.4246,0.4246,0.4246,0.4246,0.3703,0.3729,0.3771,0.3813,0.3844,0.3877,0.3906,0.3936,0.3974,0.4023,0.4041,0.4086,0.4128,0.4193,0.422,0.4256,0.4257,0.4267,0.4269,0.4271,0.4269,0.4225,0.4265,0.4265,0.4265,0.4265,0.4265,0,0.3734,0.3762,0.38,0.385,0.3882,0.3893,0.3934,0.3961,0.4,0.4038,0.4074,0.4124,0.4167,0.4206,0.4251,0.4272,0.428,0.4283,0.4282,0.4287,0.4266,0.4256,0.4275,0.4275,0.4275,0.4275,0.4275,0.4275,0.3755,0.3799,0.3819,0.3878,0.3906,0.3951,0.3973,0.4003,0.4033,0.4088,0.4124,0.4148,0.4186,0.4233,0.4273,0.4283,0.4298,0.4299,0.4311,0.429,0.4289,0.4288,0.4278,0.4302,0.4302,0.4329,0.4329,0.433]},{"header":{"parameterUnit":"m.s-1","parameterCategory":1,"la1":30.2991,"la2":30.254,"lo1":-89.0895,"lo2":-89.0444,"dy":0.0017,"dx":0.0017,"nx":28,"ny":28,"refTime":"2024-04-18T21:00:00:Z","depth":0,"parameterNumber":3,"parameterNumberName":"V-component_of_WINDS"},"data":[0,0,0,0,0,0,0,0,0,0,0,0,0,0,0,0,0,0,0,0,0,0,0,0,0,0,0,0,0,0,0,0,0,0,0,0,0,0,0,0,0,0,0,0,0,0,0,0,0,0,0,0,0,0,0,0,0,0,2.0057,2.0057,0,2.0077,2.0077,2.0078,2.0033,2.0031,2.003,2.0028,2.0046,2.0048,2.005,0,0,0,0,0,0,0,0,0,0,0,0,0,1.9977,1.9979,2.0057,2.0057,2.0058,2.0077,2.0077,2.0078,2.0033,2.0031,2.0029,2.0028,2.0046,2.0048,2.005,0,0,0,0,0,0,0,0,0,0,0,0,0,2.0006,1.9979,2.0057,2.0038,2.0036,2.0077,2.0077,2.0078,2.0033,2.0031,2.0029,2.0027,2.0045,2.0048,2.005,2.011,0,0,2.0059,2.006,0,0,0,0,0,0,0,0,2.0004,2.0009,2.004,2.0039,2.0037,2.005,2.0056,2.0089,2.0034,2.0034,2.0028,2.0026,2.0049,2.0051,2.006,2.0111,2.0112,2.0059,2.006,2.0062,2.0062,0,0,0,0,0,0,0,2.0002,2.0008,2.0065,2.0041,2.0039,2.0027,2.0029,2.0062,2.0053,2.0034,2.0031,2.0034,2.0048,2.0057,2.006,2.0112,2.0059,2.0061,2.0063,2.0064,2.0213,2.0216,0,0,0,0,0,0,2.0003,2.0006,2.0064,2.0065,2.0015,2.003,2.0032,2.0048,2.0053,2.0052,2.0036,2.0032,2.0054,2.0057,2.006,2.0131,2.0062,2.0064,2.0066,2.0211,2.0214,2.0216,0,0,0,0,0,0,2.0002,2.0009,2.0063,2.0035,2.0041,2.0034,2.0052,2.005,2.0059,2.0054,2.0052,2.0047,2.0052,2.0056,2.0098,2.0131,2.0065,2.0068,2.0208,2.0212,2.0215,2.0273,0,0,0,0,0,0,1.9999,2.0008,2.0032,2.0036,2.0043,2.0102,2.0054,2.0052,2.0064,2.0059,2.0064,2.0063,2.0051,2.0095,2.0101,2.0134,2.007,2.0205,2.021,2.0214,2.0268,2.0278,2.0287,0,0,0,0,0,1.9997,2.0047,2.0033,2.0041,2.0072,2.0104,2.0108,2.0094,2.0067,2.009,2.0087,2.0063,2.0126,2.0099,2.0106,2.014,2.0203,2.0209,2.0214,2.0264,2.0276,2.0287,0,0,0,0,0,0,2.0046,2.0047,2.0032,2.0085,2.0095,2.0097,2.0125,2.0107,2.0124,2.0118,2.0098,2.01,2.0146,2.0147,2.0116,2.0198,2.016,2.0167,2.0196,2.0208,2.0217,2.0216,2.0072,0,0,0,0,0,2.0063,2.009,2.0089,2.0136,2.0142,2.0133,2.0146,2.0134,2.0143,2.0147,2.0147,2.0156,2.0178,2.0192,2.0212,2.0268,2.0269,2.0295,2.0304,2.0312,2.0318,2.0348,2.036,2.0234,2.0234,2.0234,0,0,2.0098,2.0102,2.012,2.0146,2.0152,2.018,2.0137,2.0167,2.0187,2.0151,2.0191,2.0191,2.02,2.0249,2.0271,2.0252,2.0353,2.0318,2.0324,2.0327,2.0354,2.0366,2.0377,2.0237,2.0237,2.0236,0,0,2.0177,2.0183,2.0223,2.023,2.0241,2.0234,2.0244,2.0248,2.0247,2.0287,2.0261,2.0284,2.0322,2.0329,2.0338,2.042,2.0398,2.0427,2.0475,2.0504,2.0514,2.0523,2.0553,2.0563,2.0433,2.0433,2.0433,0,2.022,2.0261,2.0245,2.0279,2.029,2.026,2.0299,2.0307,2.0323,2.0331,2.031,2.0357,2.0361,2.0412,2.0432,2.0439,2.045,2.0426,2.0514,2.0523,2.0531,2.0559,2.057,2.0436,2.0436,2.0436,2.0435,0,2.0313,2.0342,2.0373,2.0391,2.0406,2.0442,2.0431,2.0448,2.0434,2.043,2.0471,2.0474,2.0494,2.0505,2.0492,2.0554,2.0542,2.0518,2.0479,2.0546,2.0573,2.0583,2.0441,2.044,2.0439,2.0438,0,0,2.0424,2.0432,2.0444,2.0452,2.0461,2.0483,2.0517,2.0538,2.0553,2.0565,2.0593,2.0626,2.0604,2.0614,2.0601,2.0626,2.0692,2.0599,2.0599,2.0617,2.0761,2.078,2.0793,2.0677,2.0679,2.0681,2.076,0,2.0502,2.0564,2.055,2.061,2.0636,2.0607,2.0637,2.0646,2.0643,2.0664,2.066,2.0684,2.0652,2.0658,2.0682,2.0679,2.072,2.0673,2.0703,2.0705,2.0703,2.0806,2.0827,2.0902,2.077,2.0772,2.0773,0,2.0603,2.062,2.0683,2.0688,2.0698,2.0726,2.0744,2.0765,2.0773,2.0769,2.0781,2.0763,2.0796,2.0757,2.0802,2.077,2.0782,2.0782,2.0784,2.0787,2.0744,2.0813,2.0925,2.0937,2.0789,2.0788,2.0787,0,2.0678,2.0717,2.0759,2.0767,2.0774,2.0794,2.0797,2.0804,2.0817,2.0832,2.0841,2.0859,2.0869,2.0884,2.0871,2.0844,2.0919,2.0878,2.0916,2.0917,2.0934,2.0934,2.1051,2.094,2.094,2.094,2.094,0,2.0768,2.0808,2.0794,2.082,2.0863,2.0847,2.089,2.089,2.0896,2.0921,2.0896,2.092,2.0901,2.0924,2.0914,2.0953,2.0958,2.0955,2.0952,2.0958,2.0959,2.0966,2.0961,2.0943,2.0942,2.0942,2.0941,0,2.086,2.0852,2.0897,2.09,2.0902,2.0934,2.0936,2.096,2.0955,2.0987,2.0993,2.0985,2.101,2.0999,2.1024,2.1017,2.1069,2.1058,2.1067,2.1064,2.1103,2.11,2.1231,2.1247,2.1125,2.1126,2.1127,0,2.0919,2.0949,2.0956,2.0971,2.0977,2.1002,2.1016,2.1001,2.1016,2.1028,2.1051,2.1073,2.1091,2.1132,2.1128,2.1147,2.1137,2.1182,2.114,2.1145,2.1139,2.1138,2.1141,2.119,2.1192,2.1193,2.1194,0,2.1024,2.1018,2.104,2.106,2.1078,2.1093,2.1105,2.1119,2.1104,2.1122,2.1148,2.1162,2.1188,2.1211,2.1228,2.1231,2.121,2.1207,2.1217,2.1224,2.1228,2.1227,2.109,2.1204,2.1203,2.1202,2.1202,2.1201,2.1101,2.1127,2.1136,2.1161,2.1169,2.1181,2.1204,2.1202,2.1224,2.1245,2.1234,2.1264,2.1271,2.1292,2.1298,2.132,2.1303,2.1317,2.1321,2.1325,2.1331,2.1223,2.1323,2.1323,2.1323,2.1322,2.1322,0,2.1205,2.121,2.1233,2.1252,2.1271,2.1251,2.1264,2.1281,2.1308,2.1317,2.1335,2.1365,2.1387,2.1385,2.1405,2.1423,2.1415,2.1429,2.1428,2.1429,2.1345,2.1335,2.1436,2.1436,2.1436,2.1436,2.1436,2.1436,2.1262,2.1305,2.13,2.1346,2.135,2.138,2.1389,2.14,2.1408,2.1442,2.1461,2.146,2.1464,2.1484,2.1504,2.1502,2.1511,2.153,2.1525,2.1446,2.1435,2.1424,2.1415,2.1532,2.1532,2.1608,2.1608,2.1609]}]]